Regional Weather Roundup
Issued by NWS State College, PA

Home | Current Version | Previous Version | Text Only | Print | Product List | Glossary Off
Versions: 1 2 3 4 5 6 7 8 9 10 11 12 13 14 15 16 17 18 19 20 21 22 23 24 25 26 27 28 29 30 31 32 33 34 35 36 37 38 39 40 41 42 43 44 45 46 47 48 49 50

000
ASUS41 KCTP 180510
RWRCTP

REGIONAL WEATHER ROUNDUP
NATIONAL WEATHER SERVICE STATE COLLEGE PA
100 AM EDT FRI APR 18 2014

Note: "fair" indicates few or no clouds below 12,000 feet with no
significant weather and/or obstructions to visibility.

* = STATION THAT DOES NOT REPORT PRECIPITATION /E.G. RAIN...SNOW...ETC/
    THUNDER OR FOG.

PAZ002>004-007>009-013>016-020>023-029>032-180600-
WESTERN PENNSYLVANIA

CITY           SKY/WX    TMP DP  RH WIND       PRES   REMARKS
ERIE           PTCLDY    51  25  36 SE15G29   30.32F
MEADVILLE      PTCLDY    47  26  44 SE8       30.34F
FRANKLIN*      PTCLDY    43  25  49 SE12      30.38F
NEW CASTLE     FAIR      48  27  44 CALM      30.35F
BEAVER COUNTY  NOT AVBL
BUTLER*        CLEAR     45  25  45 E8        30.37F
PITTSBURGH INT PTCLDY    47  27  45 SE9       30.34F
PITTSBURGH     CLEAR     49  26  41 SE10      30.34F
INDIANA*       CLEAR     45  28  53 SE6       30.40F
LATROBE        CLEAR     46  30  53 SE8       30.38F
WASHINGTON CO* CLEAR     46  25  42 CALM      30.36S
$$

PAZ004>006-010>012-017>019-024>028-033>037-041-042-045-046-049>053-180600-
CENTRAL PENNSYLVANIA

CITY           SKY/WX    TMP DP  RH WIND       PRES   REMARKS
BRADFORD       CLEAR     40  23  50 SE9       30.42R
DUBOIS         CLEAR     42  28  57 SE12      30.40F
CLEARFIELD     CLEAR     41  28  60 SE5       30.46S
JOHNSTOWN      CLEAR     37  27  67 SE10      30.39F
ALTOONA        CLEAR     40  30  67 SE6       30.46F
STATE COLLEGE  CLEAR     43  25  49 S3        30.50S
WILLIAMSPORT   MOCLDY    41  27  57 E9        30.56R
SELINSGROVE    CLOUDY    42  29  59 SE9       30.59R
FT INDIANTOWN  NOT AVBL
CAPITAL CITY   CLEAR     40  29  64 VRB5      30.60R
HARRISBURG     PTCLDY    42  30  62 S9        30.60R
YORK           CLEAR     37  30  75 SW3       30.60S
$$

PAZ038>040-043-044-047-048-054-055-060>062-067>071-180600-
EASTERN PENNSYLVANIA

CITY           SKY/WX    TMP DP  RH WIND       PRES   REMARKS
SCRANTON       CLEAR     35  25  66 S7        30.55R
MOUNT POCONO   CLEAR     29  25  85 SE7       30.51S
ALLENTOWN      MOCLDY    37  29  72 SE7       30.61R
QUAKERTOWN*    CLOUDY    37  32  81 SE3       30.60S
READING        CLEAR     38  28  67 SE6       30.60R
LANCASTER      CLEAR     37  28  70 CALM      30.60R
COATESVILLE    CLEAR     34  28  80 CALM      30.60R
POTTSTOWN      CLOUDY    36  30  79 CALM      30.62R
BLUE BELL      CLOUDY    37  32  81 CALM      30.60R
DOYLESTOWN     MOCLDY    35  31  85 CALM      30.59S
WILLOW GROVE   NOT AVBL
NORTH PHILA    CLOUDY    40  30  67 E8        30.62S
PHILADELPHIA   CLOUDY    40  28  62 E9        30.63R
$$



USA.gov is the U.S. government's official web portal to all federal, state and local government web resources and services.